Flag for Brazil Weather past 2 weeks in São Paulo, São Paulo, Brazil

Now
59 °F

Partly sunny.


Feels Like: 56 °F
Forecast: 60 / 71 °F
Wind: 14 mph from Southeast

Location: Sao Paulo Airport

Current Time: Sep 17, 2014 at 7:14:57 AM

Latest Report: Sep 17, 2014 at 6:00 AM


Visibility: N/A

Pressure: 30.15 "Hg

Humidity: 77%

Dew point: 52 °F

Location of São PauloLocation

Historic Weather in São Paulo — Graph

°F

São Paulo temperature yesterday

Maximum temperature yesterday: 73 °F (at 12:00 AM)
Minimum temperature yesterday: 59 °F (at 11:00 PM)
Average temperature yesterday: 66 °F

Past Weeks' High & Low Weather Summary

 TemperatureHumidityPressure
High90 °F (Sep 11, 1:00 PM)88% (Sep 2, 10:00 PM)30.39 "Hg (Sep 2, 10:00 PM)
Low54 °F (Sep 6, 7:00 AM)15% (Sep 9, 2:00 PM)29.95 "Hg (Sep 2, 3:00 PM)
Average69 °F58%30.15 "Hg
* Reported Sep 2 6:00 AM — Sep 17 6:00 AM, São Paulo, Weather by CustomWeather, © 2014

Note: Actual official high and low records may vary slightly from our data, if they occured in-between our weather recording intervals... More about our weather records

Advertising

São Paulo weather history for previous 24 hours

 ConditionsComfort  
Time TempWeatherWind HumidityBarometerVisibility
6:00 AM
Sep 17
59 °FPartly sunny.14 mph77%30.15 "HgN/A
5:00 AM59 °FPassing clouds.8 mph77%30.15 "HgN/A
4:00 AM59 °FPassing clouds.8 mph77%30.12 "HgN/A
3:00 AM59 °FPassing clouds.10 mph72%30.12 "HgN/A
2:00 AM59 °FPassing clouds.12 mph72%30.12 "HgN/A
1:00 AM61 °FPartly cloudy.10 mph72%30.15 "HgN/A
12:00 AM61 °FMostly cloudy.12 mph72%30.15 "HgN/A
11:00 PM
Sep 16
59 °FOvercast.8 mph82%30.18 "Hg6 mi
10:00 PM61 °FMostly cloudy.9 mph77%30.18 "HgN/A
9:00 PM61 °FMostly cloudy.10 mph77%30.18 "HgN/A
8:00 PM61 °FMostly cloudy.10 mph77%30.15 "HgN/A
7:00 PM61 °FMostly cloudy.13 mph77%30.12 "HgN/A
6:00 PM61 °FMostly cloudy.13 mph83%30.12 "HgN/A
5:00 PM63 °FPassing clouds.13 mph77%30.09 "HgN/A
4:00 PM64 °FBroken clouds.14 mph73%30.09 "HgN/A
3:00 PM68 °FPartly sunny.14 mph64%30.07 "HgN/A
2:00 PM68 °FPartly sunny.12 mph60%30.07 "HgN/A
1:00 PM70 °FScattered clouds.8 mph57%30.09 "HgN/A
12:00 PM68 °FPartly sunny.13 mph56%30.12 "HgN/A
11:00 AM66 °FOvercast.13 mph60%30.12 "HgN/A
10:00 AM66 °FPartly sunny.12 mph64%30.12 "HgN/A
9:00 AM64 °FPartly sunny.12 mph68%30.09 "HgN/A
8:00 AM64 °FSunny.12 mph64%30.09 "Hg10 mi
7:00 AM64 °FSunny.9 mph73%30.07 "Hg10 mi
Weather by CustomWeather, © 2014

See weather overviewHow to use our weather pages